Ottawa International, Ontario

2:08 AM EDT on August 26, 2016 (GMT -0400)
Ottawa-Macdonald-Cartier International

Weather History for CYOW - December, 2012

Change the Weather History Date:

Tuesday, December 4, 2012

  Actual Average Record
Temperature  
Mean Temperature 49 °F -  
Max Temperature 64 °F 24 °F 64 °F (2012)
Min Temperature 34 °F 10 °F 1 °F (2002)
Degree Days  
Heating Degree Days 16    
Moisture  
Dew Point 44 °F    
Average Humidity 89    
Maximum Humidity 100    
Minimum Humidity 60    
Precipitation  
Precipitation 0.08 in 0.10 in - ()
Sea Level Pressure  
Sea Level Pressure 29.95 in    
Wind  
Wind Speed 9 mph ()    
Max Wind Speed 21 mph    
Max Gust Speed 32 mph    
Visibility 10.1 miles    
Events Rain    
Averages and records for this station are not official NWS values.
T = Trace of Precipitation, MM = Missing Value Source: Averaged Metar Reports

Daily Weather History Graph

Daily Weather History Graph

Search for Another Location

Airport or City:

Trip Planner

Search our weather history database for the weather conditions in past years. The results will help you decide how hot, cold, wet, or windy it might be!

Date:

Astronomy

Dec. 04, 2012 Rise Set
Actual Time 7:25 AM EST 4:20 PM EST
Civil Twilight 6:52 AM EST 4:54 PM EST
Nautical Twilight 6:14 AM EST 5:31 PM EST
Astronomical Twilight 5:39 AM EST 6:06 PM EST
Moon 10:16 PM EST (12/4) 11:08 AM EST (12/4)
Length of Visible Light 10h 01m
Length of Day
8h 54m
Waning Gibbous, 69% of the Moon is Illuminated
Dec 4
Waning Gibbous
Dec 6
Last Quarter
Dec 13
New
Dec 20
First Quarter
Dec 28
Full

Hourly Weather History & Observations

Time (EST) Temp. Windchill Dew Point Humidity Pressure Visibility Wind Dir Wind Speed Gust Speed Precip Events Conditions
12:00 AM 37.4 °F 30.8 °F 33.8 °F 87% 30.17 in 15.0 mi ESE 9.2 mph - N/A   Overcast
1:00 AM 36 °F - 33 °F 87% 30.14 in 15 mi East 10.4 mph - -   Overcast
1:00 AM 35.6 °F 27.5 °F 33.8 °F 93% 30.14 in 15.0 mi East 11.5 mph - N/A   Overcast
1:24 AM 35.6 °F 28.0 °F 32.0 °F 87% 30.12 in 15.0 mi East 10.4 mph - N/A   Partly Cloudy
2:00 AM 35.6 °F 29.9 °F 33.8 °F 93% 30.12 in 15.0 mi ENE 6.9 mph - N/A   Scattered Clouds
2:39 AM 35.6 °F 29.2 °F 33.8 °F 93% 30.11 in 15.0 mi East 8.1 mph - N/A   Overcast
3:00 AM 35.6 °F 28.0 °F 33.8 °F 93% 30.09 in 15.0 mi East 10.4 mph - N/A   Overcast
4:00 AM 37.4 °F 30.3 °F 35.6 °F 93% 30.06 in 15.0 mi East 10.4 mph - N/A   Overcast
5:00 AM 37.4 °F 31.4 °F 35.6 °F 93% 30.04 in 15.0 mi East 8.1 mph - N/A   Overcast
5:47 AM 37.4 °F 32.8 °F 35.6 °F 93% 30.02 in 8.0 mi ENE 5.8 mph - N/A Rain Light Rain
6:00 AM 37.4 °F 31.4 °F 35.6 °F 93% 30.01 in 8.0 mi East 8.1 mph - N/A Rain Light Rain
6:12 AM 37.4 °F 33.8 °F 35.6 °F 93% 30.01 in 8.0 mi East 4.6 mph - N/A   Overcast
7:00 AM 38 °F - 37 °F 96% 30.00 in 6 mi East 6.9 mph - - Rain Light Rain
7:00 AM 37.4 °F 32.1 °F 37.4 °F 100% 30.00 in 6.0 mi East 6.9 mph - N/A   Overcast
8:00 AM 37.4 °F 32.8 °F 37.4 °F 100% 29.97 in 4.0 mi East 5.8 mph - N/A   Overcast
9:00 AM 41.0 °F 37.1 °F 39.2 °F 93% 29.96 in 3.0 mi East 5.8 mph - N/A   Overcast
9:24 AM 46.4 °F 43.5 °F 44.6 °F 93% 29.96 in 4.0 mi SSE 5.8 mph - N/A   Mostly Cloudy
10:00 AM 44.6 °F 43.1 °F 44.6 °F 100% 29.95 in 10.0 mi East 3.5 mph - N/A   Mostly Cloudy
11:00 AM 57.2 °F - 53.6 °F 88% 29.91 in 12.0 mi SSW 8.1 mph 18.4 mph N/A   Mostly Cloudy
12:00 PM 59.0 °F - 53.6 °F 82% 29.87 in 12.0 mi SSW 15.0 mph 23.0 mph N/A   Overcast
1:00 PM 64 °F - 53 °F 60% 29.84 in 12 mi SSW 16.1 mph - -   Overcast
1:00 PM 64.4 °F - 53.6 °F 68% 29.84 in 12.0 mi SW 13.8 mph 25.3 mph N/A   Overcast
2:00 PM 62.6 °F - 53.6 °F 72% 29.82 in 12.0 mi SW 20.7 mph 32.2 mph N/A   Mostly Cloudy
3:00 PM 62.6 °F - 51.8 °F 68% 29.81 in 10.0 mi SSW 20.7 mph 32.2 mph N/A   Overcast
3:30 PM 60.8 °F - 53.6 °F 77% 29.82 in 8.0 mi SW 19.6 mph 27.6 mph N/A Rain Light Rain
4:00 PM 57.2 °F - 53.6 °F 88% 29.83 in 8.0 mi SW 16.1 mph 23.0 mph N/A Rain Light Rain
4:02 PM 57.2 °F - 53.6 °F 88% 29.83 in 3.0 mi SW 15.0 mph 23.0 mph N/A Rain Light Rain
5:00 PM 55.4 °F - 53.6 °F 94% 29.83 in 6.0 mi SW 9.2 mph - N/A Rain Light Rain
6:00 PM 55.4 °F - 53.6 °F 94% 29.82 in 8.0 mi SW 8.1 mph - N/A Rain Light Rain
7:00 PM 54 °F - 53 °F 95% 29.85 in 6 mi WSW 9.2 mph - - Rain Light Rain
7:00 PM 53.6 °F - 53.6 °F 100% 29.84 in 6.0 mi WSW 9.2 mph - N/A Rain Light Rain
8:00 PM 53.6 °F - 51.8 °F 94% 29.83 in 8.0 mi WSW 8.1 mph - N/A Rain Light Rain
9:00 PM 51.8 °F - 48.2 °F 88% 29.82 in 8.0 mi WSW 8.1 mph - N/A   Overcast
10:00 PM 50.0 °F - 48.2 °F 94% 29.84 in 15.0 mi West 8.1 mph - N/A   Overcast
11:00 PM 48.2 °F - 46.4 °F 93% 29.83 in 15.0 mi West 6.9 mph - N/A   Overcast